Back to catalog

CZ-6A DEB

AlivePO
NORAD 60892·DEBRIS·🇨🇳 China

Launched Aug 6, 2024 from Taiyuan Satellite Launch Center

Loading…

Next Passes (next 24 hours)

TLE

FreshSource: Space-Track

Epoch: Sep 14, 2026, 07:49 UTC

1 60892U 24140KX  26257.32605056  .00000298  00000-0  13221-3 0  9996
2 60892  89.1164 275.6668 0051058 221.0991 138.6349 14.19957380107312

Track CZ-6A DEB in real time with AllMySat

Download on the App Store